Regional Weather Roundup
Issued by NWS Newport/Morehead, NC

Current Version | Previous Version | Graphics & Text | Print | Product List | Glossary On
Versions: 1 2 3 4 5 6 7 8 9 10 11 12 13 14 15 16 17 18 19 20 21 22 23 24 25 26 27 28 29 30 31 32 33 34 35 36 37 38 39 40 41 42 43 44 45 46 47 48 49 50
000
ASUS42 KMHX 251222
RWRMHX
WEATHER ROUNDUP FOR EASTERN NORTH CAROLINA
NATIONAL WEATHER SERVICE NEWPORT/MOREHEAD CITY NC
700 AM EST SUN JAN 25 2015

NOTE: "FAIR" INDICATES FEW OR NO CLOUDS BELOW 12,000 FEET
WITH NO SIGNIFICANT WEATHER AND/OR OBSTRUCTIONS TO VISIBILITY

NCZ015>017-031-032-045>047-102-103-251300-
NORTH COAST

CITY           SKY/WX    TMP DP  RH WIND       PRES   REMARKS
EDENTON        CLEAR     37  30  77 W7        29.92R
ELIZABETH CITY CLEAR     34  28  79 W7        29.90R
KITTY HAWK     SUNNY     39  32  75 W5        29.89R
MANTEO         CLEAR     39  32  75 W6        29.91R

$$

NCZ045>047-081-094-103-104-251300-
CENTRAL COAST

CITY           SKY/WX    TMP DP  RH WIND       PRES   REMARKS
FRISCO         CLEAR     42  32  67 NW12G23   29.91R
SWANQUARTER    NOT AVBL

$$

NCZ095-097-098-100-101-251300-
SOUTHERN COAST

CITY           SKY/WX    TMP DP  RH WIND       PRES   REMARKS
BEAUFORT       FAIR      37  31  78 W3        29.94R
CEDAR ISLAND   NOT AVBL
JACKSONVILLE   CLEAR     35  31  85 SW5       29.94R
PINEY ISLAND     N/A    N/A N/A N/A MISG      29.93R
WILMINGTON     CLEAR     35  34  96 CALM      29.95R


$$

NCZ011>013-027>030-043-044-078>080-089-090>093-098-251300-
COASTAL PLAIN

CITY           SKY/WX    TMP DP  RH WIND       PRES   REMARKS
AHOSKIE        CLEAR     29  26  89 CALM      29.92R
CLINTON        CLEAR     30  30 100 CALM      29.94R
ELIZABETHTOWN  CLEAR     32  31  96 CALM      29.96R
GOLDSBORO      CLEAR     30  30  98 S1        29.91S
GREENVILLE     CLEAR     34  30  86 CALM      29.93F
HAVELOCK       FAIR      36  29  75 W3        29.94R
KENANSVILLE    CLEAR     29  29 100 CALM      29.95R
KINSTON        CLEAR     30  28  93 CALM      29.93R
NEW BERN       CLEAR     37  29  72 CALM      29.93R
RICHLANDS      CLEAR     28  25  86 SW3       29.95R
ROCKY MOUNT    CLEAR     28  26  92 S3        29.91R
WASHINGTON     CLEAR     31  29  91 CALM      29.93R
WHITEVILLE     CLEAR     33  31  95 CALM      29.95R

$$

AMZ130-135-150-152-154-156-158-170-250-252-270-ANZ085-086-088-633-658-670-251300-
MARINE OBSERVATIONS

STATION/POSITION TIME  TEMP    WIND        PRES    WAVE   SWELL
                       AIR SEA DIR/SP/G            HT/PER HT/PER
                 (UTC) (F)     (DEG/KT/KT) (MB)    (FT/S) (FT/S)
CHESAPEAKE LIGHT 1200   40     290/ 17/ 18 1012.8
64 E VA BEACH    1200   44 52  320/ 17/ 19 1010.6    6/ 6   3/11
DUCK             1200   39 43  320/ 10/ 15 1011.5
2 E DUCK         1200      43                N/A     3/11   2/11
10 NE DUCK       1100      45                N/A     4/11   2/11
OREGON INLET     1200   38 47  280/  8/ 13 1012.5
13E OREGON INLT  1200      46                N/A     5/11   2/11
HATTERAS CG      1200   44 53  300/ 16/ 19 1013.3
DIAMOND BUOY     1200   48 70  310/ 19/ 25 1012.2    6/ 5   3/11
17 S OCRACOKE    NOT AVBL
CAPE LOOKOUT     1200   44     310/  8/ 10 1013.7
BEAUFORT LAB     1200   39 50  270/  2/  5 1012.8
27 SE WRIGHTSVLE NOT AVBL
5 SE WRIGHTSVLE  1200   43 51  300/  6/  8 1014.3
225 S CAPE HAT   1109   64 72  290/ 14/ 17 1013.5   11/10  10/10
41 SE CHARLESTON 1200   50 69  300/ 12/ 14 1015.3    5/ 6   3/ 6

$$


USA.gov is the U.S. government's official web portal to all federal, state and local government web resources and services.